EN

Hourly Weather Shusha

Today, 7 March, Sunday

Time Temperature Precipitation Wind Pressure Humidity
00:00 +4°C° 0 mm 2 mps 657 mmHg 37%
01:00 +4°C° 0 mm 2 mps 657 mmHg 36%
02:00 +4°C° 0 mm 2 mps 656 mmHg 35%
03:00 +4°C° 0 mm 2 mps 656 mmHg 35%
04:00 +4°C° 0 mm 2 mps 656 mmHg 35%
05:00 +4°C° 0 mm 2 mps 656 mmHg 35%
06:00 +5°C° 0 mm 1 mps 656 mmHg 35%
07:00 +5°C° 0 mm 2 mps 656 mmHg 35%
08:00 +6°C° 0 mm 2 mps 657 mmHg 34%
09:00 +9°C° 0 mm 1 mps 658 mmHg 33%
10:00 +9°C° 0 mm 2 mps 658 mmHg 33%
11:00 +9°C° 0 mm 2 mps 658 mmHg 32%
12:00 +10°C° 0 mm 3 mps 658 mmHg 31%
13:00 +10°C° 0 mm 3 mps 658 mmHg 36%
14:00 +9°C° 0 mm 3 mps 657 mmHg 41%
15:00 +9°C° 0 mm 3 mps 657 mmHg 45%
16:00 +7°C° 0 mm 3 mps 657 mmHg 54%
17:00 +5°C° 0 mm 2 mps 657 mmHg 63%
18:00 +4°C° 0 mm 2 mps 657 mmHg 72%
19:00 +3°C° 0 mm 2 mps 657 mmHg 77%
20:00 +2°C° 0 mm 2 mps 657 mmHg 82%
21:00 +1°C° 0 mm 2 mps 658 mmHg 87%
22:00 -1°C° 0.1 mm 2 mps 658 mmHg 89%
23:00 -1°C° 0.1 mm 2 mps 658 mmHg 91%

Tomorrow, 8 March, Monday

Time Temperature Precipitation Wind Pressure Humidity
00:00 -2°C° 0.1 mm 2 mps 658 mmHg 93%
01:00 -2°C° 0.1 mm 2 mps 657 mmHg 93%
02:00 -3°C° 0.1 mm 2 mps 657 mmHg 93%
03:00 -3°C° 0.1 mm 2 mps 657 mmHg 93%
04:00 -1°C° 0 mm 1 mps 657 mmHg 93%
05:00 -1°C° 0 mm 1 mps 657 mmHg 92%
06:00 -1°C° 0 mm 1 mps 657 mmHg 92%
07:00 -1°C° 0 mm 1 mps 657 mmHg 90%
08:00 0°C° 0 mm 1 mps 657 mmHg 88%
09:00 0°C° 0 mm 1 mps 656 mmHg 85%
10:00 -1°C° 0 mm 2 mps 656 mmHg 83%
11:00 +1°C° 0 mm 2 mps 655 mmHg 81%
12:00 +1°C° 0 mm 2 mps 655 mmHg 79%
13:00 +2°C° 0 mm 2 mps 654 mmHg 78%
14:00 +2°C° 0 mm 2 mps 654 mmHg 78%
15:00 +2°C° 0 mm 2 mps 653 mmHg 77%
16:00 +2°C° 0 mm 2 mps 653 mmHg 82%
17:00 +1°C° 0 mm 2 mps 653 mmHg 86%
18:00 +1°C° 0 mm 1 mps 652 mmHg 90%
19:00 +1°C° 0.1 mm 1 mps 653 mmHg 91%
20:00 +1°C° 0.1 mm 1 mps 653 mmHg 92%
21:00 0°C° 0.1 mm 1 mps 653 mmHg 93%
22:00 0°C° 0.3 mm 1 mps 653 mmHg 93%
23:00 0°C° 0.3 mm 1 mps 653 mmHg 93%

Day after tomorrow, 9 March, Tuesday

Time Temperature Precipitation Wind Pressure Humidity
00:00 0°C° 0.3 mm 1 mps 653 mmHg 94%
01:00 0°C° 0 mm 1 mps 653 mmHg 93%
02:00 0°C° 0 mm 1 mps 653 mmHg 92%
03:00 0°C° 0 mm 1 mps 653 mmHg 91%
04:00 0°C° 0 mm 1 mps 653 mmHg 90%
05:00 -1°C° 0 mm 0 mps 654 mmHg 89%
06:00 -1°C° 0 mm 0 mps 654 mmHg 87%
07:00 +1°C° 0 mm 1 mps 654 mmHg 83%
08:00 +2°C° 0 mm 1 mps 655 mmHg 78%
09:00 +3°C° 0 mm 1 mps 655 mmHg 74%
10:00 +3°C° 0 mm 1 mps 655 mmHg 72%
11:00 +3°C° 0 mm 2 mps 655 mmHg 70%
12:00 +4°C° 0 mm 2 mps 655 mmHg 68%
13:00 +4°C° 0 mm 2 mps 655 mmHg 69%
14:00 +4°C° 0 mm 2 mps 655 mmHg 70%
15:00 +4°C° 0 mm 2 mps 655 mmHg 70%
16:00 +3°C° 0 mm 2 mps 655 mmHg 73%
17:00 +2°C° 0 mm 2 mps 655 mmHg 75%
18:00 +3°C° 0 mm 1 mps 655 mmHg 78%
19:00 +2°C° 0 mm 1 mps 656 mmHg 78%
20:00 +2°C° 0 mm 1 mps 657 mmHg 78%
21:00 +2°C° 0 mm 1 mps 657 mmHg 78%
22:00 +2°C° 0.1 mm 1 mps 657 mmHg 79%
23:00 +1°C° 0.1 mm 1 mps 657 mmHg 80%

10 March, Wednesday

Time Temperature Precipitation Wind Pressure Humidity
00:00 +1°C° 0.1 mm 1 mps 657 mmHg 81%
01:00 +1°C° 0 mm 1 mps 657 mmHg 81%
02:00 0°C° 0 mm 1 mps 657 mmHg 82%
03:00 0°C° 0 mm 1 mps 657 mmHg 82%
04:00 0°C° 0 mm 1 mps 658 mmHg 82%
05:00 -1°C° 0 mm 1 mps 658 mmHg 83%
06:00 -1°C° 0 mm 1 mps 658 mmHg 84%
07:00 0°C° 0 mm 1 mps 658 mmHg 76%
08:00 +1°C° 0 mm 1 mps 659 mmHg 69%
09:00 +2°C° 0 mm 1 mps 659 mmHg 61%
10:00 +2°C° 0 mm 2 mps 659 mmHg 59%
11:00 +3°C° 0 mm 2 mps 659 mmHg 56%
12:00 +4°C° 0 mm 2 mps 659 mmHg 53%
13:00 +4°C° 0 mm 2 mps 658 mmHg 53%
14:00 +4°C° 0 mm 2 mps 658 mmHg 54%
15:00 +4°C° 0 mm 3 mps 658 mmHg 54%
16:00 +3°C° 0 mm 2 mps 657 mmHg 59%
17:00 +2°C° 0 mm 2 mps 657 mmHg 64%
18:00 +2°C° 0 mm 1 mps 657 mmHg 69%
19:00 +2°C° 0 mm 1 mps 656 mmHg 71%
20:00 +2°C° 0 mm 1 mps 656 mmHg 74%
21:00 +1°C° 0 mm 1 mps 656 mmHg 76%
22:00 +1°C° 0 mm 1 mps 656 mmHg 76%
23:00 +1°C° 0 mm 1 mps 655 mmHg 77%

11 March, Thursday

Time Temperature Precipitation Wind Pressure Humidity
00:00 +1°C° 0 mm 1 mps 655 mmHg 77%
01:00 -1°C° 0 mm 0 mps 654 mmHg 80%
02:00 -1°C° 0 mm 0 mps 654 mmHg 82%
03:00 -1°C° 0 mm 0 mps 653 mmHg 84%
04:00 -1°C° 0 mm 0 mps 653 mmHg 86%
05:00 0°C° 0 mm 1 mps 653 mmHg 87%
06:00 0°C° 0 mm 1 mps 653 mmHg 88%
07:00 0°C° 0 mm 1 mps 653 mmHg 85%
08:00 +1°C° 0 mm 1 mps 653 mmHg 81%
09:00 +2°C° 0 mm 1 mps 653 mmHg 78%
10:00 +2°C° 0 mm 1 mps 652 mmHg 80%
11:00 +1°C° 0 mm 2 mps 652 mmHg 82%
12:00 +1°C° 0 mm 2 mps 651 mmHg 84%
13:00 +1°C° 0.6 mm 2 mps 651 mmHg 88%
14:00 -1°C° 0.6 mm 2 mps 650 mmHg 92%
15:00 -1°C° 0.6 mm 3 mps 649 mmHg 96%
16:00 -2°C° 1.7 mm 2 mps 649 mmHg 96%
17:00 -3°C° 1.7 mm 2 mps 648 mmHg 96%
18:00 -3°C° 1.7 mm 2 mps 648 mmHg 96%
19:00 -5°C° 1.1 mm 3 mps 648 mmHg 96%
20:00 -6°C° 1.1 mm 3 mps 648 mmHg 95%
21:00 -6°C° 1.1 mm 3 mps 648 mmHg 95%
22:00 -7°C° 1 mm 3 mps 649 mmHg 94%
23:00 -7°C° 1 mm 3 mps 649 mmHg 93%

12 March, Friday

Time Temperature Precipitation Wind Pressure Humidity
00:00 -6°C° 1 mm 2 mps 649 mmHg 92%
01:00 -7°C° 0.5 mm 2 mps 649 mmHg 92%
02:00 -7°C° 0.5 mm 2 mps 649 mmHg 91%
03:00 -7°C° 0.5 mm 2 mps 650 mmHg 90%
04:00 -7°C° 0.7 mm 2 mps 650 mmHg 91%
05:00 -7°C° 0.7 mm 2 mps 651 mmHg 91%
06:00 -8°C° 0.7 mm 2 mps 651 mmHg 92%
07:00 -8°C° 0.5 mm 3 mps 652 mmHg 90%
08:00 -8°C° 0.5 mm 3 mps 653 mmHg 87%
09:00 -8°C° 0.5 mm 3 mps 654 mmHg 85%
10:00 -8°C° 0.4 mm 3 mps 654 mmHg 84%
11:00 -8°C° 0.4 mm 3 mps 655 mmHg 84%
12:00 -8°C° 0.4 mm 3 mps 655 mmHg 84%
13:00 -7°C° 0.2 mm 3 mps 655 mmHg 83%
14:00 -7°C° 0.2 mm 3 mps 656 mmHg 83%
15:00 -8°C° 0.2 mm 4 mps 656 mmHg 83%
16:00 -8°C° 0.1 mm 3 mps 656 mmHg 85%
17:00 -9°C° 0.1 mm 3 mps 657 mmHg 87%
18:00 -9°C° 0.1 mm 2 mps 657 mmHg 89%
19:00 -9°C° 0 mm 2 mps 658 mmHg 87%
20:00 -10°C° 0 mm 2 mps 658 mmHg 86%
21:00 -10°C° 0 mm 2 mps 659 mmHg 85%
22:00 -10°C° 0 mm 2 mps 659 mmHg 82%
23:00 -9°C° 0 mm 1 mps 660 mmHg 79%
Show more

We Need Your Consent

Meteoprog and our Service Providers may store and access personal data such as cookies, device identifiers or other similar technologies on your device and process such data to personalise content and ads, as well as provide social media features and to analyse the traffic.

  • Store and/or access information on your device

    Cookies, device identifiers or other information can be stored or accessed on your device for the purposes indicated above.

  • Personalised ads and content, ad and content measurement, audience insights, and products development

    Ads and content can be personalised based on a profile. More data can be added to better personalise ads and content. Ad and content performance can be measured. Insights about the audience who saw the ads and content can be derived. Such data can be used to develop or improve user’s experience, systems and software.

By clicking ‘I Agree’ you will allow the use of indicated cookies, device identifiers, web beacons or other similar technologies. Your settings can be changed in the browser on your device.

For certain purposes, legitimate interests may be relied on, rather than consent. You can read more about this in our Privacy and Cookie Policy.